Change the Weather History Date:

Monday, February 25, 2013

  Actual Average Record
Temperature  
Mean Temperature 42 °F -  
Max Temperature 48 °F 52 °F 73 °F (1999)
Min Temperature 37 °F 32 °F 16 °F (2003)
Degree Days  
Heating Degree Days 22    
Moisture  
Dew Point 38 °F    
Average Humidity 89    
Maximum Humidity 100    
Minimum Humidity 56    
Precipitation  
Precipitation 1.25 in - - ()
Sea Level Pressure  
Sea Level Pressure 29.57 in    
Wind  
Wind Speed 12 mph (NNE)    
Max Wind Speed 21 mph    
Max Gust Speed 38 mph    
Visibility 5 miles    
Events Rain , Thunderstorm    
Averages and records for this station are not official NWS values.
T = Trace of Precipitation, MM = Missing Value Source: NWS Daily Summary

Daily Weather History Graph

Daily Weather History Graph

Search for Another Location

Airport or City:

Trip Planner

Search our weather history database for the weather conditions in past years. The results will help you decide how hot, cold, wet, or windy it might be!

Date:

Astronomy

Feb. 25, 2013 Rise Set
Actual Time 6:56 AM CST 6:13 PM CST
Civil Twilight 6:30 AM CST 6:38 PM CST
Nautical Twilight 6:00 AM CST 7:08 PM CST
Astronomical Twilight 5:31 AM CST 7:38 PM CST
Moon 6:25 PM CST (2/25) 6:28 AM CST (2/25)
Length of Visible Light 12h 08m
Length of Day
11h 17m
Full, 100% of the Moon is Illuminated
Feb 25
Full
Feb 25
Full
Mar 4
Last Quarter
Mar 11
New
Mar 19
First Quarter

Hourly Weather History & Observations

Time (CST) Temp. Windchill Dew Point Humidity Pressure Visibility Wind Dir Wind Speed Gust Speed Precip Events Conditions
12:53 AM 46.9 °F - 34.0 °F 61% 29.85 in 10.0 mi East 10.4 mph - N/A   Overcast
1:53 AM 46.0 °F 39.6 °F 34.0 °F 63% 29.82 in 10.0 mi ESE 15.0 mph - N/A   Overcast
2:53 AM 46.9 °F - 34.0 °F 61% 29.79 in 10.0 mi East 10.4 mph - N/A   Overcast
3:53 AM 46.0 °F 44.8 °F 34.0 °F 63% 29.78 in 10.0 mi ENE 3.5 mph - N/A   Overcast
4:53 AM 45.0 °F 41.2 °F 34.0 °F 65% 29.75 in 10.0 mi ENE 6.9 mph - N/A   Overcast
5:53 AM 43.0 °F 38.8 °F 33.1 °F 68% 29.70 in 10.0 mi ENE 6.9 mph - N/A   Scattered Clouds
6:53 AM 46.0 °F 43.9 °F 32.0 °F 58% 29.66 in 10.0 mi Variable 4.6 mph - N/A   Partly Cloudy
7:43 AM 46.4 °F 40.7 °F 33.8 °F 62% 29.74 in 10.0 mi WSW 12.7 mph 24.2 mph N/A Thunderstorm Overcast
7:53 AM 48.0 °F - 33.1 °F 56% 29.70 in 10.0 mi ESE 4.6 mph - 0.00 in Rain , Thunderstorm Light Rain
8:10 AM 44.6 °F 41.4 °F 37.4 °F 76% 29.69 in 7.0 mi SE 5.8 mph - 0.02 in Rain , Thunderstorm Light Thunderstorms and Rain
8:31 AM 44.6 °F 38.4 °F 39.2 °F 81% 29.67 in 3.0 mi ENE 12.7 mph - 0.06 in Rain Rain
8:53 AM 43.0 °F 36.0 °F 39.0 °F 86% 29.62 in 6.0 mi ESE 13.8 mph - 0.07 in Rain Light Rain
9:09 AM 44.6 °F 37.8 °F 39.2 °F 81% 29.60 in 2.5 mi ENE 15.0 mph 21.9 mph 0.04 in Rain Rain
9:17 AM 44.6 °F 39.2 °F 39.2 °F 81% 29.63 in 5.0 mi East 10.4 mph 25.3 mph 0.04 in Rain Light Rain
9:53 AM 42.1 °F 37.1 °F 39.9 °F 92% 29.60 in 10.0 mi North 8.1 mph 24.2 mph 0.08 in Rain , Thunderstorm Light Thunderstorms and Rain
10:04 AM 42.8 °F 35.8 °F 39.2 °F 87% 29.60 in 1.8 mi North 13.8 mph - 0.08 in Thunderstorm Unknown
10:16 AM 41.0 °F 32.2 °F 39.2 °F 93% 29.63 in 3.0 mi West 18.4 mph 21.9 mph 0.16 in Rain , Thunderstorm Light Thunderstorms and Rain
10:27 AM 39.2 °F 29.6 °F 39.2 °F 100% 29.63 in 1.8 mi NW 19.6 mph 38.0 mph 0.25 in Rain , Thunderstorm Heavy Thunderstorms and Rain
10:31 AM 39.2 °F 30.2 °F 39.2 °F 100% 29.67 in 1.2 mi WNW 17.3 mph 33.4 mph 0.29 in Rain , Thunderstorm Heavy Thunderstorms and Rain
10:53 AM 37.9 °F 27.9 °F 37.9 °F 100% 29.61 in 1.2 mi North 19.6 mph - 0.51 in Rain , Thunderstorm Heavy Thunderstorms and Rain
11:00 AM 39.2 °F 30.5 °F 39.2 °F 100% 29.61 in 2.0 mi North 16.1 mph - 0.01 in Rain , Thunderstorm Thunderstorms and Rain
11:32 AM 39.2 °F 31.6 °F 39.2 °F 100% 29.63 in 1.5 mi North 12.7 mph - 0.12 in Rain Heavy Rain
11:48 AM 39.2 °F 30.8 °F 39.2 °F 100% 29.61 in 3.0 mi North 15.0 mph - 0.16 in Rain Rain
11:53 AM 39.9 °F 31.4 °F 39.0 °F 97% 29.61 in 3.0 mi North 16.1 mph 23.0 mph 0.16 in Rain Light Rain
12:02 PM 39.2 °F 30.5 °F 39.2 °F 100% 29.60 in 2.5 mi North 16.1 mph - 0.02 in Rain Rain
12:40 PM 39.2 °F 30.8 °F 39.2 °F 100% 29.58 in 3.0 mi North 15.0 mph - 0.10 in Rain Light Rain
12:53 PM 41.0 °F 32.8 °F 39.9 °F 96% 29.57 in 5.0 mi NNE 16.1 mph - 0.10 in   Overcast
1:18 PM 41.0 °F 34.7 °F 39.2 °F 93% 29.56 in 4.0 mi NNE 10.4 mph - 0.01 in Rain Rain
1:30 PM 42.8 °F 35.4 °F 41.0 °F 93% 29.54 in 4.0 mi NE 15.0 mph 24.2 mph 0.02 in Rain Light Rain
1:51 PM 41.0 °F 32.8 °F 39.2 °F 93% 29.54 in 2.5 mi NE 16.1 mph - 0.04 in Rain Light Rain
1:53 PM 41.0 °F 32.8 °F 39.0 °F 93% 29.53 in 3.0 mi NE 16.1 mph 23.0 mph 0.04 in Rain Light Rain
2:00 PM 41.0 °F 35.2 °F 39.2 °F 93% 29.53 in 5.0 mi NNE 9.2 mph 23.0 mph 0.00 in Rain Light Rain
2:31 PM 41.0 °F 32.8 °F 39.2 °F 93% 29.52 in 4.0 mi NE 16.1 mph - 0.01 in Rain Light Rain
2:53 PM 41.0 °F 32.5 °F 39.9 °F 96% 29.49 in 4.0 mi NE 17.3 mph - 0.02 in Rain Light Rain
3:03 PM 41.0 °F 31.9 °F 39.2 °F 93% 29.49 in 6.0 mi NE 19.6 mph 25.3 mph 0.00 in Rain Light Rain
3:22 PM 41.0 °F 33.1 °F 39.2 °F 93% 29.47 in 10.0 mi NE 15.0 mph - 0.00 in   Overcast
3:53 PM 42.1 °F 33.1 °F 39.0 °F 89% 29.46 in 10.0 mi NE 20.7 mph - 0.00 in   Overcast
4:12 PM 42.8 °F 37.5 °F 39.2 °F 87% 29.47 in 10.0 mi NE 9.2 mph - N/A   Overcast
4:20 PM 42.8 °F 37.0 °F 39.2 °F 87% 29.47 in 10.0 mi NE 10.4 mph 17.3 mph N/A   Overcast
4:53 PM 42.1 °F 34.9 °F 39.0 °F 89% 29.46 in 10.0 mi NE 13.8 mph - N/A   Overcast
5:38 PM 41.0 °F 35.2 °F 39.2 °F 93% 29.47 in 2.0 mi NNE 9.2 mph - 0.00 in Rain Light Rain
5:49 PM 41.0 °F 34.7 °F 39.2 °F 93% 29.47 in 2.0 mi NNE 10.4 mph - 0.00 in Rain Light Rain
5:53 PM 41.0 °F 34.7 °F 41.0 °F 100% 29.47 in 2.5 mi NNE 10.4 mph - 0.01 in Rain Light Rain
6:03 PM 41.0 °F 34.3 °F 41.0 °F 100% 29.47 in 2.5 mi NNE 11.5 mph - 0.00 in Rain Light Rain
6:13 PM 41.0 °F 34.7 °F 41.0 °F 100% 29.47 in 3.0 mi NNE 10.4 mph - 0.00 in Rain Light Rain
6:30 PM 41.0 °F 36.4 °F 41.0 °F 100% 29.49 in 2.5 mi NNE 6.9 mph - 0.03 in Rain Rain
6:42 PM 41.0 °F 35.8 °F 41.0 °F 100% 29.49 in 3.0 mi North 8.1 mph - 0.06 in Rain Rain
6:53 PM 41.0 °F 35.2 °F 41.0 °F 100% 29.48 in 3.0 mi North 9.2 mph - 0.09 in Rain Rain
7:10 PM 41.0 °F 34.7 °F 41.0 °F 100% 29.48 in 5.0 mi North 10.4 mph - 0.01 in Rain Light Rain
7:42 PM 41.0 °F 34.7 °F 39.2 °F 93% 29.47 in 3.0 mi North 10.4 mph - 0.07 in Rain Rain
7:53 PM 39.9 °F 32.9 °F 39.9 °F 100% 29.47 in 4.0 mi NNW 11.5 mph - 0.09 in Rain Rain
8:15 PM 39.2 °F 33.0 °F 39.2 °F 100% 29.46 in 5.0 mi North 9.2 mph - 0.02 in Rain Light Rain
8:53 PM 39.9 °F 32.9 °F 39.0 °F 97% 29.46 in 2.5 mi NNW 11.5 mph - 0.04 in Rain Light Rain
9:13 PM 39.2 °F 32.0 °F 39.2 °F 100% 29.45 in 3.0 mi North 11.5 mph - 0.01 in Rain Light Rain
9:53 PM 39.0 °F 32.8 °F 39.0 °F 100% 29.45 in 4.0 mi NNW 9.2 mph - 0.02 in Rain Light Rain
10:36 PM 39.2 °F 32.0 °F 37.4 °F 93% 29.45 in 7.0 mi North 11.5 mph - 0.00 in Rain Light Rain
10:53 PM 39.0 °F 31.8 °F 37.9 °F 96% 29.45 in 7.0 mi NNW 11.5 mph - 0.00 in Rain Light Rain
11:53 PM 37.0 °F 28.5 °F 37.0 °F 100% 29.45 in 4.0 mi NNW 13.8 mph - 0.02 in Rain Light Rain